Content
SEND FEEDBACK

Daily
Averages
Monthly
Summary
United States of America

HERMOSA, SOUTH DAKOTA


Home > North America > United States > South Dakota
Elevation: 3300 feet     Latitude: 43 50N     Longitude: 103 11W

WEATHER
 
SELECT A DAY
Number of Records: 203,244;   Date Range: 1/1/95 - 10/19/14
 
SHARE

PRINT THIS DATA

[ ← Previous Day ]
WEATHER ALMANAC - JULY 28, 2013
[ Next Day → ]
[ °C ]   °F
Weather ElementAverageHighLow
Temperature66.5 °F82 °F (2:52 pm)51.1 °F (4:52 am)
Dewpoint53.4 °F57.9 °F (3:52 pm)46 °F (3:52 am)
Humidity64.7 %89 % (5:52 am)42 % (2:52 pm)
Barometer29.90 in29.96 in (1:52 am)29.86 in (4:52 pm)
Wind Speed11 mph19.6 mph (3:52 pm)
Wind Gust25.3 mph (4:52 pm)
Weather ElementAverage
Visibility10 mi
Wind DirectionSSE (150.4 °)

Weather ElementTotal
Precipitation---
Cooling Degree Days1.6 (Base 65)
Growing Degree Days16.6 (Base 50)
Averaged from 23 records on July 28, 2013
WEATHER CONDITIONS BREAKOUT
WIND DIRECTION BREAKOUT
WEATHER BY HOUR - JULY 28, 2013
[ °C ]   °F
Local TimeTemperatureDewpointHumidityBarometerVisibilityWind DirectionWind SpeedGust SpeedPrecipitationEventsConditions
1:52 AM55.9 °F48.0 °F75 %29.96 in10.0 miESE (120°)8.1 mphClear
2:52 AM54.0 °F46.9 °F77 %29.93 in10.0 miSE (130°)8.1 mphClear
3:52 AM52.0 °F46.0 °F80 %29.93 in10.0 miSSE (150°)6.9 mphClear
4:52 AM51.1 °F46.0 °F83 %29.92 in10.0 miSE (140°)5.8 mphClear
5:52 AM51.1 °F48.0 °F89 %29.92 in10.0 miSE (130°)8.1 mphClear
6:52 AM55.0 °F50.0 °F83 %29.92 in10.0 miSE (140°)9.2 mphClear
7:52 AM61.0 °F52.0 °F72 %29.92 in10.0 miSE (140°)13.8 mphClear
8:52 AM66.0 °F53.1 °F63 %29.92 in10.0 miESE (120°)15.0 mphClear
9:52 AM70.0 °F54.0 °F57 %29.90 in10.0 miSouth (170°)11.5 mphClear
10:52 AM73.9 °F55.0 °F52 %29.89 in10.0 miSE (140°)12.7 mph23.0 mphClear
11:52 AM77.0 °F55.0 °F47 %29.88 in10.0 miSouth (180°)13.8 mph21.9 mphPartly Cloudy
12:52 PM75.9 °F55.9 °F50 %29.88 in10.0 miSSE (150°)9.2 mphMostly Cloudy
1:52 PM77.0 °F55.9 °F48 %29.87 in10.0 miSSE (150°)11.5 mphMostly Cloudy
2:52 PM82.0 °F57.0 °F42 %29.87 in10.0 miSouth (180°)9.2 mph18.4 mphPartly Cloudy
3:52 PM77.0 °F57.9 °F52 %29.87 in10.0 miSouth (170°)19.6 mphScattered Clouds
4:52 PM73.0 °F55.9 °F55 %29.86 in10.0 miSSE (160°)17.3 mph25.3 mphMostly Cloudy
5:52 PM73.9 °F55.9 °F53 %29.86 in10.0 miSSE (150°)11.5 mphPartly Cloudy
6:52 PM73.9 °F55.9 °F53 %29.87 in10.0 miSSE (160°)10.4 mphClear
7:52 PM70.0 °F57.0 °F63 %29.87 in10.0 miSouth (190°)10.4 mphClear
8:52 PM66.9 °F57.0 °F70 %29.88 in10.0 miSE (140°)6.9 mphClear
9:52 PM66.0 °F55.9 °F70 %29.90 in10.0 miSE (140°)12.7 mphPartly Cloudy
10:52 PM64.0 °F55.0 °F73 %29.89 in10.0 miSSE (150°)11.5 mphClear
11:52 PM62.1 °F55.9 °F80 %29.89 in10.0 miSSE (160°)9.2 mphClear
Hourly data recorded from KRAP, located miles away from Hermosa, South Dakota







STORIES FROM OUR PARTNERS